TimeEST,TemperatureF,Dew PointF,Humidity,Sea Level PressureIn,VisibilityMPH,Wind Direction,Wind SpeedMPH,Gust SpeedMPH,PrecipitationIn,Events,Conditions,WindDirDegrees,DateUTC
12:52 AM,34.0,17.1,50,30.29,10.0,North,17.3,25.3,N/A,,Clear,360,2013-02-22 05:52:00
1:52 AM,34.0,18.0,52,30.31,10.0,NNW,10.4,18.4,N/A,,Clear,340,2013-02-22 06:52:00
2:52 AM,33.1,19.0,56,30.32,10.0,NNW,6.9,-,N/A,,Clear,340,2013-02-22 07:52:00
3:52 AM,33.1,19.0,56,30.36,10.0,WNW,8.1,-,N/A,,Clear,300,2013-02-22 08:52:00
4:52 AM,32.0,18.0,56,30.39,10.0,WNW,10.4,-,N/A,,Clear,300,2013-02-22 09:52:00
5:14 AM,32.0,17.6,55,30.37,10.0,WNW,4.6,-,N/A,,Partly Cloudy,300,2013-02-22 10:14:00
5:52 AM,32.0,18.0,56,30.36,10.0,North,8.1,-,N/A,,Mostly Cloudy,360,2013-02-22 10:52:00
6:52 AM,32.0,18.0,56,30.37,10.0,NNE,9.2,-,N/A,,Overcast,30,2013-02-22 11:52:00
7:52 AM,32.0,18.0,56,30.39,10.0,NE,5.8,-,N/A,,Overcast,50,2013-02-22 12:52:00
8:52 AM,32.0,18.0,56,30.38,10.0,ENE,10.4,-,N/A,,Overcast,60,2013-02-22 13:52:00
9:52 AM,32.0,19.0,59,30.35,10.0,ENE,10.4,-,N/A,,Overcast,70,2013-02-22 14:52:00
10:52 AM,33.1,19.9,59,30.35,10.0,East,9.2,-,N/A,,Overcast,90,2013-02-22 15:52:00
11:52 AM,34.0,21.9,61,30.34,10.0,ESE,8.1,-,0.00,,Light Ice Pellets,110,2013-02-22 16:52:00
12:01 PM,33.8,21.2,60,30.34,10.0,ESE,5.8,-,0.00,,Overcast,110,2013-02-22 17:01:00
12:52 PM,34.0,23.0,64,30.33,10.0,East,4.6,-,0.00,Rain,Light Rain,100,2013-02-22 17:52:00
1:28 PM,33.8,24.8,70,30.33,10.0,East,4.6,-,0.00,,Light Ice Pellets,100,2013-02-22 18:28:00
1:52 PM,34.0,26.1,73,30.32,7.0,ESE,5.8,-,0.00,,Overcast,110,2013-02-22 18:52:00
2:03 PM,33.8,26.6,75,30.31,10.0,East,4.6,-,0.00,Rain,Light Rain,100,2013-02-22 19:03:00
2:17 PM,33.8,26.6,75,30.31,10.0,Calm,Calm,-,0.00,,Overcast,0,2013-02-22 19:17:00
2:52 PM,35.1,27.0,72,30.31,10.0,Calm,Calm,-,0.00,,Overcast,0,2013-02-22 19:52:00
3:52 PM,35.1,27.0,72,30.29,10.0,East,4.6,-,0.01,,Overcast,80,2013-02-22 20:52:00
4:38 PM,35.6,28.4,75,30.28,8.0,ENE,3.5,-,0.00,Rain,Light Rain,70,2013-02-22 21:38:00
4:52 PM,35.1,28.0,76,30.29,10.0,Calm,Calm,-,0.00,Rain,Light Rain,0,2013-02-22 21:52:00
5:52 PM,35.1,30.0,82,30.29,8.0,Calm,Calm,-,0.02,Rain,Light Rain,0,2013-02-22 22:52:00
6:45 PM,35.6,30.2,81,30.29,10.0,Calm,Calm,-,0.00,,Overcast,0,2013-02-22 23:45:00
6:52 PM,35.1,30.0,82,30.28,10.0,Calm,Calm,-,0.00,,Overcast,0,2013-02-22 23:52:00
7:52 PM,35.1,30.0,82,30.26,10.0,Calm,Calm,-,N/A,,Overcast,0,2013-02-23 00:52:00
8:52 PM,35.1,30.0,82,30.26,10.0,North,4.6,-,0.01,,Overcast,10,2013-02-23 01:52:00
9:52 PM,36.0,30.9,82,30.25,10.0,North,4.6,-,N/A,,Overcast,360,2013-02-23 02:52:00
10:39 PM,35.6,32.0,87,30.24,6.0,North,5.8,-,0.00,,Light Drizzle,360,2013-02-23 03:39:00
10:52 PM,36.0,32.0,86,30.23,5.0,North,3.5,-,0.00,,Light Drizzle,360,2013-02-23 03:52:00
11:52 PM,36.0,33.1,89,30.23,4.0,North,5.8,-,0.00,,Light Drizzle,350,2013-02-23 04:52:00